SCP
0 0 0 0 0 0 0 0 0 0 0 0 0 0 0 0 0 0 0 0 0 0 0 0 0 0 0 0 0 0 0 0 0 1 1 1 1 0 0 0 0 0 0 0 0 0 0 0 0
0 0 0 0 0 0 0 0 0 0 0 0 0 0 0 0 0 0 0 0 0 0 0 0 0 0 0 0 0 0 0 0 0 0 0 0 0 0 0 0 0 0 0 0 0 0 0 0 0
0 0 0 0 0 0 0 0 0 0 0 0 0 0 0 0 0 0 0 0 0 0 0 0 1 1 1 0 0 0 0 0 0 0 0 0 0 0 0 0 0 0 0 0 0 0 0 0 0
0 0 0 0 0 0 0 0 0 0 0 0 0 0 0 0 0 0 0 0 0 0 0 0 1 1 1 0 0 0 0 0 0 0 0 0 0 0 0 0 0 0 0 0 0 0 0 0 0
0 0 0 0 0 0 0 0 0 0 0 0 0 0 0 0 0 0 0 0 0 0 0 0 1 1 1 0 0 0 0 0 0 0 0 0 0 0 0 0 0 0 0 0 0 0 0 0 0
0 0 0 0 0 0 0 0 0 0 0 0 0 0 0 0 0 0 0 0 0 0 0 0 0 1 1 0 0 0 0 0 0 1 1 0 0 0 0 0 0 0 0 0 0 0 0 0 0
0 0 0 0 0 0 0 0 0 0 0 0 0 0 0 0 0 0 0 0 0 0 0 0 0 0 0 0 0 0 0 0 1 1 1 1 0 0 0 0 0 0 0 0 0 0 0 0 0
0 0 0 0 0 0 0 0 0 0 0 0 0 0 0 0 0 0 0 0 0 0 0 0 0 0 0 0 0 0 0 1 1 1 1 0 0 0 0 0 0 0 0 0 0 0 0 0 0
0 0 0 0 0 0 0 0 0 0 0 0 0 0 0 0 0 0 0 0 0 0 0 0 0 0 0 0 0 0 0 0 0 0 0 0 0 0 0 0 0 0 0 0 0 0 0 0 0
0 0 0 0 0 0 0 0 0 0 0 0 0 0 0 0 0 0 0 0 0 0 0 0 0 0 0 0 0 0 0 0 0 0 0 0 0 0 0 0 0 0 0 0 0 0 0 0 0
0 0 0 0 0 0 0 0 0 0 0 0 0 0 0 1 0 0 0 0 0 0 0 0 0 0 0 0 0 0 0 0 0 0 0 0 0 0 0 0 0 0 0 0 0 0 0 0 0
0 0 0 0 0 0 0 0 0 0 0 0 0 0 0 1 0 0 0 0 0 0 0 0 0 0 0 0 0 0 0 0 0 0 0 0 0 0 0 0 0 0 0 0 0 0 0 0 0
0 0 0 0 0 0 0 0 0 0 0 0 0 0 0 0 0 0 0 0 0 0 0 0 0 0 0 0 0 0 0 0 0 0 0 0 0 0 0 0 0 0 0 0 0 0 0 0 0
0 0 0 0 0 0 0 0 0 0 0 0 0 0 0 0 0 0 0 0 0 0 0 0 0 0 0 0 0 0 0 0 0 0 0 0 0 0 0 0 0 0 0 0 0 0 0 0 0
0 0 0 0 0 0 0 0 0 0 0 0 0 0 0 0 0 0 0 0 0 0 0 0 0 0 0 0 0 0 0 0 0 0 0 0 0 0 0 0 0 0 0 0 0 0 0 0 0
0 0 0 0 0 0 0 0 0 0 0 0 0 0 0 0 0 0 0 0 0 0 0 0 0 0 0 0 0 0 0 0 0 0 0 0 0 0 0 0 0 0 0 0 0 0 0 0 0
0 0 0 0 0 0 0 0 0 0 0 0 0 0 0 0 0 0 0 0 0 0 0 0 0 0 0 0 0 0 0 0 0 0 0 0 0 -0 -0 -0 0 0 0 0 0 0 0 0 0
0 0 0 0 0 0 0 0 0 0 0 0 0 0 0 0 0 0 0 0 0 0 0 0 0 0 0 0 0 0 0 0 0 0 0 0 0 -0 -1 -0 0 0 0 0 0 0 0 0 0
0 0 0 0 0 0 0 0 0 0 0 0 0 0 0 0 0 0 0 0 0 0 0 0 0 0 0 0 0 0 0 0 0 0 0 0 0 -0 -0 -0 0 0 0 0 0 0 0 0 0
0 0 0 0 0 0 0 0 0 0 0 0 0 0 0 0 0 0 0 0 0 0 0 0 0 0 0 0 0 0 0 0 0 0 0 0 0 0 0 0 0 0 0 0 0 0 0 0 -0
0 0 0 0 0 0 0 0 0 0 0 0 0 0 0 0 0 0 0 0 0 0 0 0 0 0 0 0 0 0 0 0 0 0 0 0 0 0 0 0 0 0 0 0 0 0 0 0 0
0 0 0 0 0 0 0 0 0 0 0 0 0 0 0 0 0 0 0 0 0 0 0 0 0 0 0 0 0 0 0 0 0 0 0 0 0 0 0 0 0 0 0 0 0 0 0 0 0
0 0 0 0 0 0 0 0 0 0 0 0 0 0 0 0 0 0 0 0 0 0 0 0 0 0 0 0 0 0 0 0 0 0 0 0 0 0 0 0 0 0 0 0 0 0 0 0 0
0 0 0 0 0 0 0 0 0 0 0 0 0 0 0 0 0 0 0 0 0 0 0 0 0 0 0 0 0 0 0 0 0 0 0 0 0 0 0 0 0 0 0 0 0 0 0 0 0
0 0 0 0 0 0 0 0 0 0 0 0 0 0 0 0 0 0 0 0 0 0 0 0 0 0 0 0 0 0 0 0 0 0 0 0 0 0 0 0 0 0 0 0 0 0 0 0 0
0 0 0 0 0 0 0 0 0 0 0 0 0 0 0 0 0 0 0 0 0 0 0 0 0 0 0 0 0 0 0 0 0 0 0 0 0 0 0 0 0 0 0 0 0 0 0 0 0
0 0 0 0 0 0 0 0 0 0 0 0 0 0 0 0 0 0 0 0 0 0 0 0 0 0 0 0 0 0 0 0 0 0 0 0 0 0 0 0 0 0 0 0 0 0 0 0 0
0 0 0 0 0 0 0 0 0 0 0 0 0 0 0 0 0 0 0 0 0 0 0 0 0 0 0 0 0 0 0 0 0 0 0 0 0 0 0 0 0 0 0 0 0 0 0 0 0
0 0 0 0 0 0 0 0 0 0 0 0 0 0 0 0 0 0 0 0 0 0 0 0 0 0 0 0 0 0 0 0 0 0 0 0 0 0 0 0 0 0 0 0 0 0 0 0 0
0 0 0 0 0 0 0 0 0 0 0 0 0 0 0 0 0 0 0 0 0 0 0 0 0 0 0 0 0 0 0 0 0 0 0 0 0 0 0 0 0 0 0 0 0 0 0 0 0
Wind_Speed
3 3 2 2 5 5 1 3 2 2 1 1 2 3 3 2 2 2 0 6 7 7 6 9 10 10 10 10 10 11 11 12 12 11 11 11 11 11 10 10 10 9 9 10 9 9 9 9 9
3 2 2 4 5 2 3 3 2 2 2 2 3 3 3 2 2 2 2 4 7 7 6 7 11 10 10 10 11 11 10 11 11 11 11 11 11 10 10 9 9 8 8 8 8 8 9 9 8
3 2 4 4 3 3 3 2 2 1 1 2 2 2 2 1 2 2 2 7 7 7 6 7 11 10 10 10 10 10 10 10 10 10 10 10 10 9 9 8 8 8 7 7 7 7 8 8 8
3 3 5 4 1 4 4 3 1 1 1 1 3 3 2 2 1 3 7 9 8 6 5 6 10 9 9 9 9 10 9 9 9 9 9 9 8 8 8 8 7 7 7 7 7 6 7 7 7
3 4 4 2 3 4 4 3 3 2 1 1 3 3 1 3 4 8 9 9 8 6 4 5 9 8 8 8 8 8 9 8 8 8 7 7 7 7 7 7 7 7 6 7 6 6 6 6 7
4 5 4 1 4 3 3 2 3 2 2 2 3 3 1 2 5 6 7 7 7 6 4 4 8 8 8 8 7 7 7 7 6 6 6 6 6 6 6 6 6 6 6 6 6 5 6 5 6
4 4 3 2 2 3 2 2 3 3 2 2 4 4 1 2 4 6 6 6 6 6 5 3 3 5 7 7 7 6 6 6 5 5 5 5 5 5 6 5 5 5 5 5 5 5 5 5 5
4 5 1 2 2 4 2 1 1 2 2 2 4 5 4 5 6 7 6 6 6 5 4 3 3 3 3 4 6 6 5 5 4 4 4 4 4 4 4 4 4 5 5 5 5 5 5 4 4
4 4 2 4 4 3 1 1 0 1 3 2 1 2 4 11 10 8 6 4 4 4 3 3 3 3 2 3 4 5 5 3 3 2 3 3 1 1 1 2 4 5 4 4 3 4 4 3 3
4 3 6 5 4 2 1 1 2 2 2 2 2 4 9 11 10 9 7 6 5 4 3 2 2 2 2 2 3 2 2 2 1 1 2 2 1 1 1 1 3 2 2 2 2 3 3 2 1
4 6 5 4 4 2 2 1 2 4 3 5 6 9 11 11 9 8 7 6 5 4 4 3 3 2 2 2 2 1 1 1 1 1 2 1 1 1 1 1 0 0 1 1 1 2 2 2 1
3 5 4 4 2 2 2 2 2 4 5 4 7 11 12 11 9 8 8 6 5 5 4 4 3 3 2 2 2 1 1 1 1 0 1 1 1 1 1 1 1 1 1 1 1 1 1 1 1
3 4 3 4 3 3 2 2 2 2 1 7 10 10 11 11 8 6 5 5 5 5 4 4 4 3 2 2 1 2 1 1 1 1 1 1 1 1 1 1 1 1 1 1 1 1 1 1 1
3 3 3 3 2 1 3 1 3 3 4 8 9 9 8 9 9 6 6 5 5 5 4 3 4 3 3 2 2 1 1 1 1 0 0 1 1 1 1 1 1 1 1 1 1 1 1 0 0
0 1 4 2 1 1 4 1 3 4 6 8 8 8 8 7 8 8 8 6 5 5 4 4 4 3 3 2 2 1 1 1 1 1 1 1 1 2 2 1 1 1 1 2 1 1 1 0 0
2 1 2 4 1 2 4 4 4 5 8 7 7 7 7 5 6 7 6 5 4 4 3 3 3 3 3 2 2 1 1 1 1 1 1 1 1 2 2 2 1 1 1 2 2 1 1 0 0
2 1 3 4 1 2 3 5 3 5 8 8 7 7 7 5 5 4 5 4 4 4 3 2 2 3 3 2 1 1 1 1 1 1 1 1 1 2 2 2 2 2 2 1 2 1 1 1 0
4 3 3 4 3 1 2 5 3 4 6 6 6 6 6 5 5 5 5 4 4 3 3 3 2 2 2 1 1 1 1 0 0 1 1 1 1 2 2 2 2 2 2 1 1 2 1 1 1
3 3 4 6 2 2 4 5 4 3 4 5 5 6 6 5 3 4 5 5 4 3 3 3 3 2 2 2 1 1 1 1 1 1 2 2 2 2 2 1 1 2 2 2 2 2 1 1 1
3 3 4 4 0 2 1 4 3 4 6 7 8 8 7 5 3 4 4 4 5 4 4 3 3 3 3 3 2 1 1 1 1 1 1 1 1 2 2 2 2 2 2 2 2 2 1 0 1
4 6 5 4 1 2 2 4 3 2 3 4 5 6 6 7 6 5 4 4 4 5 4 4 3 2 2 2 1 1 1 1 1 1 1 1 1 1 2 2 2 2 2 2 2 3 3 1 0
5 6 6 4 2 2 2 3 5 2 2 4 5 5 6 6 6 5 5 4 4 4 3 3 3 3 3 3 3 3 2 2 2 2 1 1 1 2 2 2 2 3 2 3 3 3 2 2 1
6 2 3 3 3 1 1 2 7 1 4 5 5 6 7 6 6 6 6 6 5 4 3 3 3 2 3 3 4 3 2 2 1 1 1 1 1 1 2 2 2 2 2 2 3 2 2 2 3
4 6 6 5 4 1 3 3 7 4 6 5 5 6 6 6 5 5 5 4 3 2 2 2 2 2 2 3 3 3 3 3 2 2 2 2 1 1 2 2 2 2 2 2 3 3 3 3 3
5 5 3 3 2 5 2 3 8 5 5 6 7 7 6 5 5 5 5 4 3 3 3 3 3 2 2 2 3 3 4 4 4 4 3 2 2 2 3 2 2 2 2 3 3 3 3 3 3
5 8 7 5 5 4 1 5 7 4 3 3 4 5 5 5 5 5 6 6 5 4 3 3 3 2 2 2 2 2 3 2 2 3 3 3 3 3 3 3 3 3 3 3 3 2 3 2 3
6 4 5 6 2 1 4 5 7 2 0 2 3 4 5 5 6 5 5 5 5 5 4 4 4 2 2 2 2 2 2 2 2 3 3 3 3 3 3 3 3 2 3 3 2 2 3 2 3
5 8 5 5 4 3 4 4 5 5 4 3 4 5 5 5 4 4 4 4 4 4 3 3 3 3 2 2 2 2 2 2 2 2 2 2 2 2 2 2 3 2 2 3 3 2 2 2 2
3 4 5 4 4 5 3 7 6 8 7 7 7 6 6 5 4 4 4 4 3 3 3 3 3 2 2 2 2 2 2 2 2 2 3 2 2 2 2 2 2 2 3 3 3 3 3 3 3
4 5 7 5 3 4 3 8 4 5 5 6 6 5 4 4 4 4 4 3 3 3 3 3 3 3 3 2 2 2 2 2 2 2 2 2 2 2 2 2 2 2 2 3 4 4 3 3 3
Wind_Direction
157 124 108 80 56 50 317 268 265 323 337 351 102 105 118 118 149 186 27 129 129 138 146 150 149 147 141 133 127 123 123 124 125 127 129 130 130 133 136 139 139 141 143 143 145 146 146 146 145
128 131 75 62 79 59 285 263 268 242 188 122 68 61 76 67 68 94 104 131 131 136 137 145 147 145 142 136 130 126 127 127 128 130 131 133 134 136 139 143 143 144 145 147 148 149 148 149 151
147 126 87 75 101 178 239 246 225 250 136 127 100 65 85 75 104 137 150 134 120 123 131 150 147 145 141 137 134 132 131 130 131 133 134 135 138 139 140 142 146 148 148 149 151 153 152 154 158
118 59 56 72 210 224 224 244 204 132 39 81 121 102 70 18 135 139 128 127 119 120 131 148 146 145 143 142 141 138 137 136 136 137 139 141 143 143 146 147 148 149 150 152 154 152 153 155 159
67 79 62 25 260 252 238 237 181 161 173 113 120 126 88 11 94 118 124 128 127 124 128 143 143 144 145 145 142 141 142 140 140 141 143 146 147 147 151 153 153 155 156 158 160 159 160 162 162
63 70 83 263 266 270 257 201 145 131 144 132 130 125 99 80 111 126 125 124 124 126 123 132 144 144 144 141 141 144 146 147 145 145 148 149 150 152 158 162 162 162 163 164 165 167 166 162 166
107 104 152 214 266 283 249 159 153 151 166 172 147 127 138 129 126 122 115 112 110 111 107 107 130 142 143 141 140 139 143 150 155 155 155 155 158 162 166 170 176 180 179 177 175 172 173 174 177
127 107 137 230 228 254 258 124 148 142 186 125 134 150 186 168 128 108 100 100 105 104 104 105 100 101 118 135 143 138 133 132 140 146 147 152 160 170 178 183 192 198 197 191 185 177 173 174 180
100 84 209 220 208 244 217 100 60 102 113 98 115 158 153 133 126 113 104 95 106 112 107 108 108 102 105 128 136 133 136 135 133 133 136 134 110 129 176 194 193 200 201 200 187 176 175 173 178
105 153 224 219 200 214 236 187 178 121 113 115 87 89 117 131 136 137 140 145 151 149 142 119 116 109 107 119 103 89 107 108 99 86 101 88 85 131 151 166 180 195 202 198 170 148 146 134 119
159 196 231 247 226 215 218 210 165 144 185 197 173 153 142 142 145 149 153 156 160 155 147 139 133 121 118 107 108 91 77 76 71 78 96 100 98 98 92 88 141 111 83 49 75 94 97 115 130
183 239 229 253 241 220 209 190 165 191 209 174 157 150 146 148 156 163 163 163 157 150 160 157 146 134 129 112 114 112 103 103 104 119 142 143 130 105 111 103 84 81 83 80 69 87 104 122 150
209 257 258 255 268 230 181 187 164 230 149 111 123 136 149 154 159 157 150 149 151 162 174 170 158 152 147 126 131 124 129 145 152 148 137 138 151 155 144 134 126 121 114 119 95 86 103 114 147
218 230 276 282 275 241 144 194 143 225 138 126 135 148 162 164 159 151 152 159 169 180 182 174 167 164 153 145 143 145 162 158 121 139 136 137 157 163 154 149 141 143 140 135 129 134 131 139 163
50 335 319 286 202 209 115 8 209 185 139 143 154 159 166 171 159 164 174 174 179 182 179 179 177 161 159 158 162 155 169 150 157 187 168 159 171 166 164 162 167 179 148 127 111 102 91 134 149
33 42 299 283 173 186 140 233 240 163 151 163 168 167 169 176 174 175 169 166 171 167 172 186 179 164 168 165 167 163 170 170 184 189 175 182 186 171 161 165 188 175 140 133 129 127 119 123 124
27 232 247 281 228 143 158 236 241 170 164 178 177 172 174 174 177 174 163 163 170 169 170 176 164 164 168 159 150 138 151 183 181 177 188 197 196 172 165 172 179 163 146 145 153 133 148 150 168
228 225 251 253 251 134 202 242 234 187 179 182 177 177 181 181 188 169 157 158 160 161 160 166 166 157 141 120 90 78 95 213 154 192 207 192 182 160 148 158 160 151 139 142 148 142 131 155 168
190 201 248 261 245 173 229 242 238 194 185 184 183 183 185 190 180 151 150 152 157 160 169 174 171 169 149 147 162 176 209 230 241 224 206 189 172 156 148 155 153 149 158 177 165 145 132 127 120
187 214 255 288 288 164 229 273 259 197 200 194 191 189 185 182 162 158 153 162 171 181 186 183 188 186 184 186 187 191 190 220 226 251 225 198 167 164 170 166 173 170 162 166 161 145 136 140 129
213 202 218 225 23 55 73 313 278 234 187 190 195 192 184 185 179 179 176 183 182 190 196 193 194 200 198 179 148 104 62 41 24 292 262 245 201 195 187 178 174 181 175 180 185 173 166 177 191
241 219 193 182 133 268 150 262 279 241 225 205 202 193 192 191 181 181 185 190 194 201 191 182 178 197 207 180 169 170 176 210 229 226 233 251 220 210 199 183 179 187 185 187 199 181 179 170 194
215 164 143 145 144 104 16 201 279 253 235 234 212 197 197 196 187 185 189 195 199 195 183 179 169 194 206 193 184 183 200 220 234 218 221 244 254 233 212 196 183 190 193 195 198 187 187 188 196
144 83 66 58 78 253 230 187 269 230 224 219 208 197 196 192 184 186 187 183 191 179 165 167 172 202 201 192 198 196 200 200 200 217 218 230 244 251 238 209 199 199 198 201 203 198 197 202 204
110 102 43 4 13 252 237 202 252 248 228 206 202 197 192 183 180 180 180 186 189 190 174 164 174 206 209 198 203 206 204 196 203 212 213 215 222 232 237 223 213 210 208 206 198 195 208 203 204
172 148 159 194 217 263 278 238 257 259 243 202 184 180 176 178 187 189 188 188 189 197 184 175 186 205 206 205 214 214 207 202 210 211 212 211 217 224 223 213 215 221 213 208 199 199 215 209 213
146 169 161 132 139 247 271 277 299 284 264 165 163 165 179 187 190 189 186 184 190 195 196 194 193 201 213 215 218 218 213 205 212 215 213 216 221 223 215 209 210 216 214 210 200 214 227 215 217
139 142 105 121 151 241 277 264 249 243 229 205 193 192 199 192 190 185 185 185 188 189 192 197 196 204 216 209 216 214 211 208 209 205 213 219 219 214 217 218 216 220 221 209 198 215 230 218 229
105 103 111 119 151 164 242 264 233 215 205 197 205 200 192 189 191 189 191 188 179 170 178 196 202 206 212 216 216 208 214 216 204 207 217 219 215 209 214 220 221 227 230 216 207 221 218 216 232
150 155 144 149 204 179 189 265 280 216 202 189 194 196 190 186 188 187 181 165 166 179 190 203 207 214 219 216 205 198 203 200 203 224 231 218 218 218 210 207 225 238 234 216 211 219 216 213 225